Regional Weather Roundup
Issued by NWS

Home | Current Version | Previous Version | Text Only | Print | Product List | Glossary Off
Versions: 1 2 3 4 5 6 7 8 9 10 11 12 13 14 15 16 17 18 19 20 21 22 23 24 25 26 27 28 29 30 31 32 33 34 35 36 37 38 39 40 41 42 43 44 45 46 47 48 49 50

294
ASUS45 KSLC 280210
RWRUT

UTAH REGIONAL WEATHER ROUNDUP
NATIONAL WEATHER SERVICE SALT LAKE CITY UT
800 PM MDT MON MAR 27 2017

UTZ001>011-023>025-280300-

NORTHERN UTAH

CITY           SKY/WX    TMP DP  RH WIND       PRES   REMARKS
BRIGHAM CITY     N/A     47  35  64 N10       29.95R
HILL AFB       MOCLDY    43  37  79 NW13      29.93R
LOGAN          CLOUDY    45  38  76 N7        29.95R
OGDEN          CLOUDY    43  36  76 N16       29.92R
SALT LAKE CITY CLOUDY    44  40  85 N10       29.92R
TOOELE VALLEY  CLOUDY    45  39  81 N16       29.95R
WENDOVER       MOCLDY    48  26  42 N20G30    30.00R
HEBER CITY     MIX PCPN  36  34  93 CALM      29.89R
WEST JORDAN    CLOUDY    46  46 100 NW12      29.94R

$$

UTZ011>015-024>027-280300-

CENTRAL/NORTHEAST UTAH

CITY           SKY/WX    TMP DP  RH WIND       PRES   REMARKS
PROVO AIRPORT  CLOUDY    41  38  89 SE7       29.91R
MOAB/CANYONLAN LGT RAIN  50  41  71 W13       29.78R
DELTA          CLOUDY    34  34 100 S9        29.93R WCI  26
PRICE          CLOUDY    37  36  96 E3        29.82F
RICHFIELD      CLOUDY    39  39 100 SW2       29.91R
ROOSEVELT      RAIN      43  37  81 SW7       29.86R
VERNAL         CLOUDY    43  38  82 CALM      29.81R

$$

UTZ013>016-019>022-027-280300-

SOUTHERN UTAH

CITY           SKY/WX    TMP DP  RH WIND       PRES   REMARKS
BRYCE CANYON   MOCLDY    33  26  75 W15G22    29.86R WCI  23
CEDAR CITY     CLOUDY    33  31  92 NE3       29.91S
MILFORD        LGT RAIN  34  32  92 CALM      29.93R
ST GEORGE      CLOUDY    53  34  48 E6        29.87R
HANKSVILLE     CLOUDY    46  36  66 NW18      29.81R
KANAB          PTCLDY    46  36  66 SW9       29.88R
BLANDING       MOCLDY    45  36  70 NE7       29.86R

$$

REGIONAL REPORTS     COLORADO/ARIZONA

CITY           SKY/WX    TMP DP  RH WIND       PRES   REMARKS
CRAIG, CO      CLOUDY    40  33  76 E7        29.83F
GRAND JUNCTION PTCLDY    55  32  41 SE13      29.72R
RIFLE, CO      CLOUDY    52  33  48 E12       29.78R
MONTROSE, CO   CLOUDY    50  33  52 CALM      29.82R
CORTEZ, CO     CLOUDY    44  39  82 E8        29.84R
COLORADO CITY    N/A     46  34  61 NW10      29.90R
PAGE, AZ       MOCLDY    52  33  48 W12G24    29.77R
GRAND CANYON   PTCLDY    38  30  73 VRB7      29.88R WCI  33
KINGMAN, AZ    MOCLDY    56  25  30 NW20      29.85R
FLAGSTAFF, AZ  MOCLDY    41  30  65 W16G29    29.87R

$$

REGIONAL REPORTS    NEVADA/IDAHO/WYOMING

CITY           SKY/WX    TMP DP  RH WIND       PRES   REMARKS
LAS VEGAS, NV  PTCLDY    63  33  32 NE22      29.84R
ELY, NY        LGT SNOW  34  31  88 N18G25    30.02R WCI  23
ELKO, NV       CLEAR     43  24  47 NW10      30.09R
POCATELLO, ID  MOCLDY    46  34  62 W24       29.97R
BURLEY, ID     LGT RAIN  44  27  51 W17G30    30.00R
FORT BRIDGER,  SNOW      34  34 100 N6        29.91S VSB 1/4 WCI  29
EVANSTON, WY   SNOW      32  30  92 N12       29.89R VSB 1/4 WCI  23
ROCK SPRINGS,  LGT RAIN  37  34  89 N10       29.86R WCI  30
KEMMERER, WY   LGT SNOW  32  32 100 NW9       29.91R VSB 3/4 WCI  24

$$




USA.gov is the U.S. government's official web portal to all federal, state and local government web resources and services.